This is the latest recevied weather packets stored in our database for station/object DB0SMU-12. If no packets are shown the sender has not sent any weather packets the latest 1 day(s).
| Time | Temp. | Humidity | Pressure | Rain* | Wind** | Luminosity | Snow |
|---|---|---|---|---|---|---|---|
| 1778010134 | 13.89° C | 75% | 1009.9 hPa | 0 mm | 3.58 m/s, 225° | - | - |
| 1778009953 | 13.89° C | 75% | 1009.9 hPa | 0 mm | 4.02 m/s, 225° | - | - |
| 1778009772 | 13.89° C | 74% | 1009.8 hPa | 0 mm | 3.58 m/s, 226° | - | - |
| 1778009591 | 13.89° C | 74% | 1009.7 hPa | 0 mm | 3.13 m/s, 225° | - | - |
| 1778009411 | 13.89° C | 74% | 1009.6 hPa | 0 mm | 2.68 m/s, 233° | - | - |
| 1778009230 | 14.44° C | 73% | 1009.5 hPa | 0 mm | 2.68 m/s, 229° | - | - |
| 1778009049 | 13.89° C | 74% | 1009.5 hPa | 0 mm | 2.68 m/s, 229° | - | - |
| 1778008868 | 13.89° C | 73% | 1009.4 hPa | 0 mm | 2.68 m/s, 227° | - | - |
| 1778008687 | 14.44° C | 73% | 1009.4 hPa | 0 mm | 2.24 m/s, 228° | - | - |
| 1778008506 | 14.44° C | 73% | 1009.3 hPa | 0 mm | 2.24 m/s, 249° | - | - |
| 1778008325 | 14.44° C | 73% | 1009.4 hPa | 0 mm | 2.24 m/s, 242° | - | - |
| 1778008144 | 14.44° C | 74% | 1009.3 hPa | 0 mm | 1.79 m/s, 252° | - | - |
| 1778007963 | 14.44° C | 74% | 1009.3 hPa | 0 mm | 1.79 m/s, 254° | - | - |
| 1778007782 | 13.89° C | 74% | 1009.3 hPa | 0 mm | 2.24 m/s, 247° | - | - |
| 1778007602 | 13.89° C | 74% | 1009.3 hPa | 0 mm | 1.79 m/s, 261° | - | - |
| 1778007421 | 14.44° C | 74% | 1009.3 hPa | 0 mm | 2.24 m/s, 259° | - | - |
| 1778007240 | 14.44° C | 73% | 1009.2 hPa | 0 mm | 1.79 m/s, 267° | - | - |
| 1778007059 | 14.44° C | 73% | 1009.1 hPa | 0 mm | 2.24 m/s, 264° | - | - |
| 1778006878 | 14.44° C | 73% | 1009.2 hPa | 0 mm | 2.24 m/s, 259° | - | - |
| 1778006697 | 14.44° C | 72% | 1009.1 hPa | 0 mm | 2.24 m/s, 270° | - | - |
| 1778006516 | 14.44° C | 71% | 1009.1 hPa | 0 mm | 2.24 m/s, 260° | - | - |
| 1778006336 | 14.44° C | 71% | 1009 hPa | 0 mm | 2.24 m/s, 265° | - | - |
| 1778006155 | 14.44° C | 70% | 1008.9 hPa | 0 mm | 2.24 m/s, 262° | - | - |
| 1778005974 | 14.44° C | 70% | 1009 hPa | 0 mm | 2.24 m/s, 262° | - | - |
| 1778005793 | 14.44° C | 70% | 1008.9 hPa | 0 mm | 2.68 m/s, 249° | - | - |
* Rain latest hour (hover to see other rain measurements)
** Current wind speed in m/s (hover to see current wind gust speed)